Location: Ljubljana
(46.0552°N, 14.5144°E)
Time: 13:10:32
(UTC+01:00)

ISS - Visible Passes

Search period start: 16 November 2018 00:00
Search period end: 26 November 2018 00:00
Orbit: 401 x 408 km, 51.6° (Epoch: 16 November)

Date Brightness Start Highest point End Pass type
(mag) Time Alt. Az. Time Alt. Az. Time Alt. Az.
23 Nov -1.3 17:50:29 10° SE 17:50:46 10° SE 17:50:46 10° SE visible
24 Nov -2.0 18:32:00 10° SSW 18:33:40 25° SSW 18:33:40 25° SSW visible
25 Nov -2.3 17:40:22 10° SSW 17:42:59 23° SE 17:43:48 20° ESE visible
25 Nov -0.5 19:16:00 10° WSW 19:16:28 13° WSW 19:16:28 13° WSW visible
